Regional Weather Roundup
Issued by NWS State College, PA

Home | Current Version | Previous Version | Text Only | Print | Product List | Glossary On
Versions: 1 2 3 4 5 6 7 8 9 10 11 12 13 14 15 16 17 18 19 20 21 22 23 24 25 26 27 28 29 30 31 32 33 34 35 36 37 38 39 40 41 42 43 44 45 46 47 48 49 50
000
ASUS41 KCTP 252110
RWRCTP

REGIONAL WEATHER ROUNDUP
NATIONAL WEATHER SERVICE STATE COLLEGE PA
500 PM EDT THU AUG 25 2016

Note: "fair" indicates few or no clouds below 12,000 feet with no
significant weather and/or obstructions to visibility.

* = STATION THAT DOES NOT REPORT PRECIPITATION /E.G. RAIN...SNOW...ETC/
    THUNDER OR FOG.

PAZ002>004-007>009-013>016-020>023-029>032-252200-
WESTERN PENNSYLVANIA

CITY           SKY/WX    TMP DP  RH WIND       PRES   REMARKS
ERIE           MOSUNNY   87  71  58 S12       29.95F
MEADVILLE      MOSUNNY   84  69  60 S13G18    30.01F
FRANKLIN*        N/A     84  70  61 SW14      30.04S
NEW CASTLE     FAIR      88  71  57 VRB7      30.02S
BEAVER COUNTY  MOSUNNY   90  70  51 SW7G18    30.04S HX  95
BUTLER*        NOT AVBL
PITTSBURGH INT PTSUNNY   87  70  56 SW12      30.03F
PITTSBURGH     MOSUNNY   86  70  58 SW9G18    30.04S
INDIANA*       MOSUNNY   84  72  65 SW9       30.08S
LATROBE        PTSUNNY   84  73  70 SW14      30.06F
WASHINGTON CO* MOSUNNY   88  73  62 SW8       30.06S HX  96
$$

PAZ004>006-010>012-017>019-024>028-033>037-041-042-045-046-049>053-252200-
CENTRAL PENNSYLVANIA

CITY           SKY/WX    TMP DP  RH WIND       PRES   REMARKS
BRADFORD       MOSUNNY   81  69  67 SW7       30.05F
DUBOIS         MOSUNNY   82  68  62 SW9       30.05F
CLEARFIELD     PTSUNNY   87  69  54 SW9       30.04F
JOHNSTOWN      MOSUNNY   82  68  62 W9        30.11F
ALTOONA        MOSUNNY   86  69  56 W10       30.06F
STATE COLLEGE  MOSUNNY   84  72  65 SW13      30.03F
WILLIAMSPORT   MOSUNNY   85  73  67 SE7       29.97F
SELINSGROVE    CLOUDY    85  74  69 S6        30.00F
FT INDIANTOWN  MOSUNNY   86  71  62 S6        30.01F
CAPITAL CITY   PTSUNNY   89  70  53 S6        30.00S
HARRISBURG     PTSUNNY   87  75  67 SE5       30.00S HX  96
YORK           MOSUNNY   87  71  58 SW6       30.01F
$$

PAZ038>040-043-044-047-048-054-055-060>062-067>071-252200-
EASTERN PENNSYLVANIA

CITY           SKY/WX    TMP DP  RH WIND       PRES   REMARKS
SCRANTON       CLOUDY    76  72  87 SW7       30.03S
MOUNT POCONO   CLOUDY    72  67  84 W12       30.08F
ALLENTOWN      CLOUDY    82  71  69 SW8       30.02S
QUAKERTOWN*    PTCLDY    82  72  69 CALM      30.03F
READING        CLOUDY    83  71  67 S8        30.00F
LANCASTER      PTSUNNY   83  74  74 S7        30.02S
COATESVILLE    PTCLDY    79  72  78 VRB5      30.06F
POTTSTOWN      PTSUNNY   82  70  66 SW9       30.04F
BLUE BELL      CLOUDY    82  72  69 SW5       30.02F
DOYLESTOWN     CLOUDY    84  72  67 SW9       30.02S
WILLOW GROVE   NOT AVBL
NORTH PHILA    CLOUDY    85  71  63 SW10      30.03S
PHILADELPHIA   CLOUDY    85  72  65 SW10      30.03S
$$




USA.gov is the U.S. government's official web portal to all federal, state and local government web resources and services.